Time,TemperatureF,DewpointF,PressureIn,WindDirection,WindDirectionDegrees,WindSpeedMPH,WindSpeedGustMPH,Humidity,HourlyPrecipIn,Conditions,Clouds,dailyrainin,SoftwareType,DateUTC
2013-07-25 00:02:00,64.0,58.4,29.99,ENE,67,0.0,-999.0,82,-99.99,,,0.00,Acu-Link.com,2013-07-25 05:02:00,
2013-07-25 00:17:00,64.2,58.6,29.98,ENE,67,0.0,-999.0,82,-99.99,,,0.00,Acu-Link.com,2013-07-25 05:17:00,
2013-07-25 00:32:00,64.0,58.4,29.99,ENE,67,0.0,-999.0,82,-99.99,,,0.00,Acu-Link.com,2013-07-25 05:32:00,
2013-07-25 00:48:00,63.1,57.8,29.99,ENE,67,0.0,-999.0,83,-99.99,,,0.00,Acu-Link.com,2013-07-25 05:48:00,
2013-07-25 01:03:00,62.2,57.3,29.99,ENE,67,0.0,-999.0,84,-99.99,,,0.00,Acu-Link.com,2013-07-25 06:03:00,
2013-07-25 01:18:00,61.9,58.0,29.99,ENE,67,0.0,-999.0,87,-99.99,,,0.00,Acu-Link.com,2013-07-25 06:18:00,
2013-07-25 01:34:00,62.1,58.2,29.99,ENE,67,0.0,-999.0,87,-99.99,,,0.00,Acu-Link.com,2013-07-25 06:34:00,
2013-07-25 01:49:00,61.3,57.4,30.00,ENE,67,0.0,-999.0,87,-99.99,,,0.00,Acu-Link.com,2013-07-25 06:49:00,
2013-07-25 02:04:00,60.8,57.2,30.00,ENE,67,0.0,-999.0,88,-99.99,,,0.00,Acu-Link.com,2013-07-25 07:04:00,
2013-07-25 02:19:00,60.4,56.8,30.00,NNE,22,0.0,-999.0,88,-99.99,,,0.00,Acu-Link.com,2013-07-25 07:19:00,
2013-07-25 02:35:00,60.1,56.8,30.00,NNE,22,0.0,-999.0,89,-99.99,,,0.00,Acu-Link.com,2013-07-25 07:35:00,
2013-07-25 02:50:00,59.7,56.8,30.00,NE,45,0.0,-999.0,90,-99.99,,,0.00,Acu-Link.com,2013-07-25 07:50:00,
2013-07-25 03:05:00,59.5,57.2,30.00,NE,45,0.0,-999.0,92,-99.99,,,0.00,Acu-Link.com,2013-07-25 08:05:00,
2013-07-25 03:20:00,59.4,57.1,30.00,NE,45,0.0,-999.0,92,-99.99,,,0.00,Acu-Link.com,2013-07-25 08:20:00,
2013-07-25 03:35:00,59.2,56.9,30.00,NE,45,0.0,-999.0,92,-99.99,,,0.00,Acu-Link.com,2013-07-25 08:35:00,
2013-07-25 03:51:00,58.8,56.8,30.00,NE,45,0.0,-999.0,93,-99.99,,,0.00,Acu-Link.com,2013-07-25 08:51:00,
2013-07-25 04:06:00,59.9,58.2,30.00,ENE,67,2.7,-999.0,94,-99.99,,,0.00,Acu-Link.com,2013-07-25 09:06:00,
2013-07-25 04:21:00,62.6,59.0,29.99,South,180,2.2,-999.0,88,-99.99,,,0.00,Acu-Link.com,2013-07-25 09:21:00,
2013-07-25 04:36:00,63.0,59.1,30.00,South,180,2.7,-999.0,87,-99.99,,,0.00,Acu-Link.com,2013-07-25 09:36:00,
2013-07-25 05:06:00,62.2,58.6,29.98,South,180,0.0,-999.0,88,-99.99,,,0.00,Acu-Link.com,2013-07-25 10:06:00,
2013-07-25 05:22:00,62.6,59.0,29.99,SSW,202,0.0,-999.0,88,-99.99,,,0.00,Acu-Link.com,2013-07-25 10:22:00,
2013-07-25 05:37:00,63.3,59.4,29.99,SSW,202,2.7,-999.0,87,-99.99,,,0.00,Acu-Link.com,2013-07-25 10:37:00,
2013-07-25 05:52:00,62.6,59.0,29.99,SSW,202,0.0,-999.0,88,-99.99,,,0.00,Acu-Link.com,2013-07-25 10:52:00,
2013-07-25 06:07:00,62.4,59.1,29.99,SSW,202,2.2,-999.0,89,-99.99,,,0.00,Acu-Link.com,2013-07-25 11:07:00,
2013-07-25 06:22:00,62.1,58.8,29.99,SSW,202,0.0,-999.0,89,-99.99,,,0.00,Acu-Link.com,2013-07-25 11:22:00,
2013-07-25 06:38:00,61.9,58.9,29.99,SSW,202,0.0,-999.0,90,-99.99,,,0.00,Acu-Link.com,2013-07-25 11:38:00,
2013-07-25 06:53:00,62.8,59.8,30.00,SSW,202,0.0,-999.0,90,-99.99,,,0.00,Acu-Link.com,2013-07-25 11:53:00,
2013-07-25 07:08:00,64.2,61.2,30.00,SSW,202,0.0,-999.0,90,-99.99,,,0.00,Acu-Link.com,2013-07-25 12:08:00,
2013-07-25 07:24:00,68.7,62.6,30.01,SSW,202,2.2,-999.0,81,-99.99,,,0.00,Acu-Link.com,2013-07-25 12:24:00,
2013-07-25 07:39:00,69.3,62.1,30.01,SW,225,3.2,-999.0,78,-99.99,,,0.00,Acu-Link.com,2013-07-25 12:39:00,
2013-07-25 07:54:00,69.8,62.3,30.01,South,180,2.7,-999.0,77,-99.99,,,0.00,Acu-Link.com,2013-07-25 12:54:00,
2013-07-25 08:09:00,70.5,62.2,30.01,SSW,202,3.7,-999.0,75,-99.99,,,0.00,Acu-Link.com,2013-07-25 13:09:00,
2013-07-25 08:25:00,71.4,62.7,30.02,WSW,247,0.0,-999.0,74,-99.99,,,0.00,Acu-Link.com,2013-07-25 13:25:00,
2013-07-25 08:40:00,71.6,62.5,30.03,SSW,202,6.3,-999.0,73,-99.99,,,0.00,Acu-Link.com,2013-07-25 13:40:00,
2013-07-25 08:55:00,72.5,62.9,30.03,SE,135,3.2,-999.0,72,-99.99,,,0.00,Acu-Link.com,2013-07-25 13:55:00,
2013-07-25 09:10:00,74.3,63.5,30.03,South,180,6.3,-999.0,69,-99.99,,,0.00,Acu-Link.com,2013-07-25 14:10:00,
2013-07-25 09:41:00,74.5,62.8,30.02,SSE,157,4.2,-999.0,67,-99.99,,,0.00,Acu-Link.com,2013-07-25 14:41:00,
2013-07-25 09:56:00,75.2,64.3,30.02,South,180,3.2,-999.0,69,-99.99,,,0.00,Acu-Link.com,2013-07-25 14:56:00,
2013-07-25 10:11:00,76.1,64.3,30.01,South,180,8.3,-999.0,67,-99.99,,,0.00,Acu-Link.com,2013-07-25 15:11:00,
2013-07-25 10:27:00,76.5,63.4,30.02,SSE,157,3.2,-999.0,64,-99.99,,,0.00,Acu-Link.com,2013-07-25 15:27:00,
2013-07-25 10:42:00,76.8,64.1,30.02,South,180,2.2,-999.0,65,-99.99,,,0.00,Acu-Link.com,2013-07-25 15:42:00,
2013-07-25 10:57:00,77.0,64.3,30.01,ESE,112,6.3,-999.0,65,-99.99,,,0.00,Acu-Link.com,2013-07-25 15:57:00,
2013-07-25 11:12:00,78.1,65.4,30.01,SSE,157,4.7,-999.0,65,-99.99,,,0.00,Acu-Link.com,2013-07-25 16:12:00,
2013-07-25 11:28:00,81.0,66.3,30.00,ESE,112,7.3,-999.0,61,-99.99,,,0.00,Acu-Link.com,2013-07-25 16:28:00,
2013-07-25 12:02:00,81.3,65.6,30.00,SSE,157,3.2,-999.0,59,-99.99,,,0.00,Acu-Link.com,2013-07-25 17:02:00,
2013-07-25 12:17:00,84.7,67.2,30.00,SSE,157,5.3,-999.0,56,-99.99,,,0.00,Acu-Link.com,2013-07-25 17:17:00,
2013-07-25 12:32:00,84.9,66.9,29.99,SSE,157,6.8,-999.0,55,-99.99,,,0.00,Acu-Link.com,2013-07-25 17:32:00,
2013-07-25 12:47:00,84.2,66.3,29.99,East,90,2.2,-999.0,55,-99.99,,,0.00,Acu-Link.com,2013-07-25 17:47:00,
2013-07-25 13:02:00,84.9,66.4,29.98,South,180,6.3,-999.0,54,-99.99,,,0.00,Acu-Link.com,2013-07-25 18:02:00,
2013-07-25 13:17:00,84.7,66.2,29.98,South,180,4.2,-999.0,54,-99.99,,,0.00,Acu-Link.com,2013-07-25 18:17:00,
2013-07-25 13:32:00,84.9,64.2,29.98,ESE,112,4.2,-999.0,50,-99.99,,,0.00,Acu-Link.com,2013-07-25 18:32:00,
2013-07-25 13:47:00,83.8,65.4,29.97,SE,135,4.2,-999.0,54,-99.99,,,0.00,Acu-Link.com,2013-07-25 18:47:00,
2013-07-25 14:04:00,82.4,64.6,29.97,South,180,5.3,-999.0,55,-99.99,,,0.00,Acu-Link.com,2013-07-25 19:04:00,
2013-07-25 14:19:00,82.4,65.1,29.97,SSE,157,3.2,-999.0,56,-99.99,,,0.00,Acu-Link.com,2013-07-25 19:19:00,
2013-07-25 14:34:00,82.2,66.4,29.98,SSE,157,3.2,-999.0,59,-99.99,,,0.00,Acu-Link.com,2013-07-25 19:34:00,
2013-07-25 14:49:00,79.5,68.8,29.98,SSE,157,4.2,-999.0,70,-99.99,,,0.00,Acu-Link.com,2013-07-25 19:49:00,
2013-07-25 15:04:00,75.7,67.6,29.98,SE,135,4.2,-999.0,76,-99.99,,,0.00,Acu-Link.com,2013-07-25 20:04:00,
2013-07-25 15:19:00,75.6,67.5,29.98,SSE,157,0.0,-999.0,76,-99.99,,,0.00,Acu-Link.com,2013-07-25 20:19:00,
2013-07-25 15:35:00,76.3,69.3,29.99,SSE,157,0.0,-999.0,79,-99.99,,,0.00,Acu-Link.com,2013-07-25 20:35:00,
2013-07-25 15:50:00,76.5,69.9,29.99,SSE,157,0.0,-999.0,80,-99.99,,,0.01,Acu-Link.com,2013-07-25 20:50:00,
2013-07-25 16:05:00,77.5,71.2,29.98,SE,135,0.0,-999.0,81,-99.99,,,0.01,Acu-Link.com,2013-07-25 21:05:00,
2013-07-25 16:20:00,78.1,71.0,29.98,South,180,0.0,-999.0,79,-99.99,,,0.01,Acu-Link.com,2013-07-25 21:20:00,
2013-07-25 16:36:00,78.4,71.0,29.99,South,180,0.0,-999.0,78,-99.99,,,0.01,Acu-Link.com,2013-07-25 21:36:00,
2013-07-25 16:51:00,77.2,69.4,29.98,SSE,157,2.2,-999.0,77,-99.99,,,0.01,Acu-Link.com,2013-07-25 21:51:00,
2013-07-25 17:06:00,76.5,68.7,29.99,SSE,157,2.7,-999.0,77,-99.99,,,0.01,Acu-Link.com,2013-07-25 22:06:00,
2013-07-25 17:21:00,76.5,69.1,29.98,SE,135,5.8,-999.0,78,-99.99,,,0.01,Acu-Link.com,2013-07-25 22:21:00,
2013-07-25 17:36:00,75.4,67.7,29.97,South,180,1.7,-999.0,77,-99.99,,,0.01,Acu-Link.com,2013-07-25 22:36:00,
2013-07-25 17:52:00,75.0,67.3,29.97,South,180,2.7,-999.0,77,-99.99,,,0.01,Acu-Link.com,2013-07-25 22:52:00,
2013-07-25 18:07:00,74.3,67.0,29.96,ESE,112,2.7,-999.0,78,-99.99,,,0.01,Acu-Link.com,2013-07-25 23:07:00,
2013-07-25 18:22:00,73.0,67.5,29.97,WNW,292,3.7,-999.0,83,-99.99,,,0.01,Acu-Link.com,2013-07-25 23:22:00,
2013-07-25 18:37:00,72.5,67.7,29.96,West,270,0.0,-999.0,85,-99.99,,,0.02,Acu-Link.com,2013-07-25 23:37:00,
2013-07-25 18:53:00,71.8,68.0,29.95,West,270,0.0,-999.0,88,-99.99,,,0.02,Acu-Link.com,2013-07-25 23:53:00,
2013-07-25 19:08:00,71.4,68.0,29.96,West,270,2.2,-999.0,89,-99.99,,,0.02,Acu-Link.com,2013-07-26 00:08:00,
2013-07-25 19:23:00,70.7,67.3,29.96,SW,225,2.2,-999.0,89,-99.99,,,0.02,Acu-Link.com,2013-07-26 00:23:00,
2013-07-25 19:38:00,70.7,67.3,29.96,SW,225,0.0,-999.0,89,-99.99,,,0.02,Acu-Link.com,2013-07-26 00:38:00,
2013-07-25 19:53:00,70.3,67.2,29.96,SW,225,0.0,-999.0,90,-99.99,,,0.02,Acu-Link.com,2013-07-26 00:53:00,
2013-07-25 20:08:00,70.3,67.2,29.96,SW,225,0.0,-999.0,90,-99.99,,,0.02,Acu-Link.com,2013-07-26 01:08:00,
2013-07-25 20:24:00,70.0,67.6,29.96,SW,225,0.0,-999.0,92,-99.99,,,0.02,Acu-Link.com,2013-07-26 01:24:00,
2013-07-25 20:39:00,69.4,67.6,29.95,SW,225,0.0,-999.0,94,-99.99,,,0.03,Acu-Link.com,2013-07-26 01:39:00,
2013-07-25 20:55:00,69.4,67.6,29.95,SW,225,2.7,-999.0,94,-99.99,,,0.03,Acu-Link.com,2013-07-26 01:55:00,
2013-07-25 21:10:00,69.1,67.3,29.95,SW,225,0.0,-999.0,94,-99.99,,,0.03,Acu-Link.com,2013-07-26 02:10:00,
2013-07-25 21:25:00,68.9,67.1,29.96,SW,225,0.0,-999.0,94,-99.99,,,0.03,Acu-Link.com,2013-07-26 02:25:00,
2013-07-25 21:40:00,68.9,67.1,29.96,SW,225,0.0,-999.0,94,-99.99,,,0.03,Acu-Link.com,2013-07-26 02:40:00,
2013-07-25 21:56:00,68.9,67.1,29.96,SW,225,0.0,-999.0,94,-99.99,,,0.03,Acu-Link.com,2013-07-26 02:56:00,
2013-07-25 22:11:00,68.9,67.1,29.95,SW,225,2.2,-999.0,94,-99.99,,,0.03,Acu-Link.com,2013-07-26 03:11:00,
2013-07-25 22:26:00,68.7,66.6,29.95,SW,225,2.2,-999.0,93,-99.99,,,0.03,Acu-Link.com,2013-07-26 03:26:00,
2013-07-25 22:42:00,68.0,65.9,29.96,SW,225,2.7,-999.0,93,-99.99,,,0.03,Acu-Link.com,2013-07-26 03:42:00,
2013-07-25 22:57:00,67.8,65.7,29.96,SW,225,2.7,-999.0,93,-99.99,,,0.03,Acu-Link.com,2013-07-26 03:57:00,
2013-07-25 23:12:00,68.0,66.2,29.95,SW,225,2.2,-999.0,94,-99.99,,,0.03,Acu-Link.com,2013-07-26 04:12:00,
2013-07-25 23:27:00,68.2,65.8,29.95,South,180,3.2,-999.0,92,-99.99,,,0.03,Acu-Link.com,2013-07-26 04:27:00,
2013-07-25 23:43:00,68.2,65.8,29.95,South,180,3.7,-999.0,92,-99.99,,,0.03,Acu-Link.com,2013-07-26 04:43:00,
2013-07-25 23:58:00,67.8,65.7,29.95,SSE,157,1.7,-999.0,93,-99.99,,,0.03,Acu-Link.com,2013-07-26 04:58:00,